• In Uzbekistan
  • List of Countries
  • For 7 days
  • Water Temperature
  • Satellite Maps
  • Weather Map
  • Weather Widgets
  • user-avatar
    Login

    Hourly Weather Masvingo

    Today, 15 October, Monday

    Time Temperature Precipitation Wind Pressure Humidity
    00:00 +23°C° 0 mm 2 mps 671 mmHg 63%
    01:00 +23°C° 0 mm 2 mps 671 mmHg 64%
    02:00 +21°C° 0 mm 1 mps 671 mmHg 66%
    03:00 +21°C° 0 mm 1 mps 671 mmHg 65%
    04:00 +20°C° 0 mm 2 mps 670 mmHg 64%
    05:00 +20°C° 0 mm 2 mps 670 mmHg 63%
    06:00 +23°C° 0 mm 2 mps 671 mmHg 56%
    07:00 +25°C° 0 mm 2 mps 671 mmHg 48%
    08:00 +28°C° 0 mm 3 mps 672 mmHg 42%
    09:00 +30°C° 0 mm 2 mps 673 mmHg 36%
    10:00 +34°C° 0 mm 2 mps 673 mmHg 29%
    11:00 +37°C° 0 mm 2 mps 673 mmHg 23%
    12:00 +37°C° 0 mm 2 mps 673 mmHg 22%
    13:00 +37°C° 0 mm 2 mps 672 mmHg 21%
    14:00 +36°C° 0 mm 3 mps 672 mmHg 23%
    15:00 +35°C° 0.2 mm 3 mps 672 mmHg 26%
    16:00 +34°C° 0.2 mm 3 mps 672 mmHg 28%
    17:00 +33°C° 0.2 mm 3 mps 671 mmHg 31%
    18:00 +30°C° 0.1 mm 2 mps 671 mmHg 35%
    19:00 +29°C° 0.1 mm 2 mps 671 mmHg 40%
    20:00 +27°C° 0.1 mm 2 mps 672 mmHg 44%
    21:00 +27°C° 0 mm 1 mps 672 mmHg 45%
    22:00 +27°C° 0 mm 1 mps 672 mmHg 46%
    23:00 +26°C° 0 mm 1 mps 672 mmHg 46%

    Tomorrow, 16 October, Tuesday

    Time Temperature Precipitation Wind Pressure Humidity
    00:00 +26°C° 0 mm 1 mps 672 mmHg 47%
    01:00 +26°C° 0 mm 1 mps 672 mmHg 48%
    02:00 +25°C° 0 mm 2 mps 671 mmHg 49%
    03:00 +24°C° 0 mm 1 mps 671 mmHg 52%
    04:00 +24°C° 0 mm 1 mps 671 mmHg 55%
    05:00 +23°C° 0 mm 1 mps 671 mmHg 58%
    06:00 +25°C° 0 mm 1 mps 672 mmHg 52%
    07:00 +27°C° 0 mm 2 mps 673 mmHg 46%
    08:00 +29°C° 0 mm 2 mps 674 mmHg 40%
    09:00 +31°C° 0 mm 2 mps 674 mmHg 35%
    10:00 +33°C° 0 mm 3 mps 674 mmHg 29%
    11:00 +35°C° 0 mm 4 mps 674 mmHg 24%
    12:00 +35°C° 0 mm 4 mps 674 mmHg 23%
    13:00 +35°C° 0 mm 4 mps 673 mmHg 22%
    14:00 +35°C° 0 mm 4 mps 673 mmHg 21%
    15:00 +35°C° 0 mm 4 mps 672 mmHg 21%
    16:00 +34°C° 0 mm 4 mps 672 mmHg 22%
    17:00 +34°C° 0 mm 4 mps 672 mmHg 23%
    18:00 +31°C° 0 mm 3 mps 672 mmHg 27%
    19:00 +29°C° 0 mm 3 mps 672 mmHg 30%
    20:00 +28°C° 0 mm 2 mps 672 mmHg 34%
    21:00 +27°C° 0 mm 2 mps 672 mmHg 37%
    22:00 +26°C° 0 mm 2 mps 672 mmHg 40%
    23:00 +25°C° 0 mm 2 mps 672 mmHg 43%

    Day after tomorrow, 17 October, Wednesday

    Time Temperature Precipitation Wind Pressure Humidity
    00:00 +25°C° 0 mm 2 mps 672 mmHg 46%
    01:00 +24°C° 0 mm 2 mps 671 mmHg 49%
    02:00 +24°C° 0 mm 2 mps 671 mmHg 53%
    03:00 +23°C° 0 mm 2 mps 671 mmHg 55%
    04:00 +23°C° 0 mm 2 mps 671 mmHg 58%
    05:00 +21°C° 0 mm 2 mps 670 mmHg 60%
    06:00 +24°C° 0 mm 2 mps 671 mmHg 54%
    07:00 +27°C° 0 mm 2 mps 672 mmHg 47%
    08:00 +29°C° 0 mm 3 mps 672 mmHg 40%
    09:00 +31°C° 0 mm 2 mps 673 mmHg 33%
    10:00 +34°C° 0 mm 2 mps 673 mmHg 27%
    11:00 +37°C° 0 mm 2 mps 673 mmHg 20%
    12:00 +37°C° 0 mm 2 mps 672 mmHg 19%
    13:00 +38°C° 0 mm 2 mps 671 mmHg 17%
    14:00 +38°C° 0 mm 2 mps 670 mmHg 15%
    15:00 +37°C° 0 mm 2 mps 670 mmHg 16%
    16:00 +37°C° 0 mm 3 mps 669 mmHg 17%
    17:00 +36°C° 0 mm 3 mps 669 mmHg 17%
    18:00 +34°C° 0 mm 3 mps 669 mmHg 19%
    19:00 +33°C° 0 mm 3 mps 670 mmHg 21%
    20:00 +30°C° 0 mm 2 mps 670 mmHg 23%
    21:00 +29°C° 0 mm 2 mps 670 mmHg 25%
    22:00 +29°C° 0 mm 2 mps 670 mmHg 28%
    23:00 +28°C° 0 mm 2 mps 671 mmHg 30%

    18 October, Thursday

    Time Temperature Precipitation Wind Pressure Humidity
    00:00 +27°C° 0 mm 2 mps 670 mmHg 33%
    01:00 +27°C° 0 mm 2 mps 670 mmHg 37%
    02:00 +26°C° 0 mm 2 mps 669 mmHg 40%
    03:00 +25°C° 0 mm 2 mps 669 mmHg 44%
    04:00 +24°C° 0 mm 2 mps 669 mmHg 49%
    05:00 +24°C° 0 mm 1 mps 669 mmHg 53%
    06:00 +25°C° 0 mm 2 mps 670 mmHg 53%
    07:00 +26°C° 0 mm 2 mps 671 mmHg 52%
    08:00 +27°C° 0 mm 3 mps 672 mmHg 51%
    09:00 +28°C° 0 mm 3 mps 672 mmHg 50%
    10:00 +29°C° 0 mm 4 mps 672 mmHg 49%
    11:00 +30°C° 0 mm 4 mps 672 mmHg 48%
    12:00 +29°C° 0 mm 5 mps 671 mmHg 50%
    13:00 +29°C° 0 mm 5 mps 671 mmHg 53%
    14:00 +28°C° 0 mm 5 mps 670 mmHg 55%
    15:00 +27°C° 0 mm 5 mps 670 mmHg 60%
    16:00 +26°C° 0 mm 5 mps 670 mmHg 64%
    17:00 +23°C° 0 mm 5 mps 670 mmHg 69%
    18:00 +23°C° 0.1 mm 5 mps 670 mmHg 73%
    19:00 +22°C° 0.1 mm 4 mps 671 mmHg 77%
    20:00 +21°C° 0.1 mm 4 mps 672 mmHg 80%
    21:00 +20°C° 0.1 mm 4 mps 672 mmHg 81%
    22:00 +20°C° 0.1 mm 3 mps 672 mmHg 81%
    23:00 +20°C° 0.1 mm 3 mps 672 mmHg 82%

    19 October, Friday

    Time Temperature Precipitation Wind Pressure Humidity
    00:00 +20°C° 0 mm 3 mps 672 mmHg 82%
    01:00 +20°C° 0 mm 2 mps 671 mmHg 83%
    02:00 +20°C° 0 mm 2 mps 671 mmHg 83%
    03:00 +19°C° 0 mm 2 mps 671 mmHg 84%
    04:00 +19°C° 0 mm 2 mps 671 mmHg 85%
    05:00 +19°C° 0 mm 2 mps 671 mmHg 86%
    06:00 +20°C° 0 mm 2 mps 672 mmHg 82%
    07:00 +21°C° 0 mm 2 mps 672 mmHg 77%
    08:00 +22°C° 0 mm 3 mps 673 mmHg 72%
    09:00 +25°C° 0 mm 3 mps 673 mmHg 65%
    10:00 +27°C° 0 mm 3 mps 673 mmHg 58%
    11:00 +29°C° 0 mm 3 mps 673 mmHg 50%
    12:00 +30°C° 0 mm 3 mps 673 mmHg 46%
    13:00 +31°C° 0 mm 3 mps 672 mmHg 41%
    14:00 +34°C° 0 mm 3 mps 672 mmHg 36%
    15:00 +33°C° 0 mm 4 mps 671 mmHg 37%
    16:00 +32°C° 0 mm 4 mps 671 mmHg 38%
    17:00 +32°C° 0 mm 4 mps 671 mmHg 39%
    18:00 +29°C° 0 mm 4 mps 671 mmHg 45%
    19:00 +27°C° 0 mm 4 mps 671 mmHg 50%
    20:00 +26°C° 0 mm 3 mps 672 mmHg 56%
    21:00 +25°C° 0 mm 3 mps 672 mmHg 59%
    22:00 +24°C° 0 mm 2 mps 671 mmHg 63%
    23:00 +23°C° 0 mm 1 mps 671 mmHg 66%

    20 October, Saturday

    Time Temperature Precipitation Wind Pressure Humidity
    00:00 +23°C° 0 mm 1 mps 671 mmHg 69%
    01:00 +22°C° 0 mm 1 mps 671 mmHg 71%
    02:00 +22°C° 0 mm 1 mps 671 mmHg 73%
    03:00 +21°C° 0 mm 1 mps 671 mmHg 75%
    04:00 +21°C° 0 mm 1 mps 671 mmHg 77%
    05:00 +21°C° 0 mm 1 mps 671 mmHg 78%
    06:00 +23°C° 0 mm 1 mps 672 mmHg 69%
    07:00 +26°C° 0 mm 1 mps 672 mmHg 60%
    08:00 +28°C° 0 mm 1 mps 673 mmHg 50%
    09:00 +30°C° 0 mm 1 mps 673 mmHg 41%
    10:00 +34°C° 0 mm 2 mps 673 mmHg 31%
    11:00 +36°C° 0 mm 2 mps 673 mmHg 22%
    12:00 +37°C° 0 mm 2 mps 673 mmHg 19%
    13:00 +38°C° 0 mm 3 mps 672 mmHg 17%
    14:00 +38°C° 0 mm 3 mps 671 mmHg 14%
    15:00 +38°C° 0 mm 4 mps 671 mmHg 16%
    16:00 +37°C° 0 mm 5 mps 671 mmHg 17%
    17:00 +36°C° 0 mm 6 mps 671 mmHg 18%
    18:00 +34°C° 0 mm 6 mps 671 mmHg 22%
    19:00 +32°C° 0 mm 6 mps 672 mmHg 26%
    20:00 +30°C° 0 mm 6 mps 672 mmHg 30%
    21:00 +28°C° 0 mm 7 mps 673 mmHg 41%
    22:00 +26°C° 0 mm 7 mps 673 mmHg 52%
    23:00 +23°C° 0 mm 8 mps 673 mmHg 63%
    Show more